星链-31861 (STARLINK-31861 )

导读 | 豆包AI

STARLINK-31861是美国SpaceX星链星座的一颗卫星,于北京时间2024年5月28日8点发射入轨,属于星链低轨互联网星座组网卫星。星链项目旨在构建全球卫星互联网,为全球提供高速宽带服务,该卫星发射延续了SpaceX批量部署星链的节奏,进一步扩充了星链星座的在轨规模。

Basic Information
目录编号:
59906
目录名称:
STARLINK-31861
国际标识:
2024-100X
轨道中心:
EARTH
卫星名称:
星链-31861
卫星全名:
星链-31861 (STARLINK-31861 )
卫星状态:
在轨 (已飞行656 天)
发射日期:
2024-05-28 UTC
国别 :
美国 (US)
星等 :
--
Orbit Information
数据来源 国际轨道数据 AOE轨道数据
星历时间 2026-03-15T17:47:24+0800
11小时前
查看轨道信息
2026-03-11T06:00:00+0800
4天前
查看轨道信息
半长轴 6861.191km 6861.133km
偏心率 0.0000874 0.0000413
轨道倾角 43.007° 43.004°
近地点辐角 308.544° 301.064°
升交点赤经 85.960° 111.330°
平近点角 51.534° 171.445°
近地点 482.454km 482.712km
远地点 483.654km 483.28km
周期 94.267分钟 94.266分钟
每日圈数 15.275785 15.27598
Detailed Information
固有亮度:
5
最大亮度:
1.5
卫星平台:
Starlink v2.0 mini
覆盖范围:
全球
运营商:
太空探索技术公司
运营商所在国:
美国
制造商(研发单位):
太空探索技术公司
制造商所在国:
美国
使用方式:
暂无
Satellite Introduction
星链(Starlink)计划是由太空探索技术公司(SpaceX)提出的一个巨型低轨卫星互联网星座项目,计划在2019年至2024年间在太空搭建由约1.2万颗卫星组成的“星链”网络,其中1584颗将部署在地球上空550千米处的近地轨道,并从2020年开始工作。该卫星仍在工作。
2D Orbit Map
3D Orbit Map
Orbit Altitude Analysis Chart
Orbit Inclination Analysis Chart
Orbit Comprehensive Analysis Chart
View Comprehensive Chart